Location: Unspecified
(33.6682°S, 0.0000°E)
Time: 13:11:07
(UTC+00:00)

Tiros 1 despin weight - Pass Details

Date: 25 June 2019
Orbit: 594 x 642 km, 48.2° (Epoch: 24 August)

Event Time Altitude Azimuth Distance (km) Brightness Sun altitude
Rises 10:58:20 0° 267° (W) 2,923 ? 30.9°
Reaches altitude 10° 11:01:07 10° 251° (WSW) 2,028 ? 31.1°
Maximum altitude 11:04:43 22° 200° (SSW) 1,428 ? 31.3°
Drops below altitude 10° 11:08:22 10° 150° (SSE) 2,052 ? 31.5°
Sets 11:11:12 0° 134° (SE) 2,969 ? 31.6°
